Location: Newark
(5.8900°S, 42.6378°W)
Time: 16:17:44
(UTC+00:00)

NUDT-PHONESAT - Visible Passes

Search period start: 20 October 2019 00:00
Search period end: 30 October 2019 00:00
Orbit: 486 x 506 km, 97.4° (Epoch: 20 October)

Date Brightness Start Highest point End Pass type
(mag) Time Alt. Az. Time Alt. Az. Time Alt. Az.
22 Oct ? 21:45:25 10° SW 21:47:54 17° WSW 21:50:23 10° WNW visible
23 Oct ? 08:05:38 10° E 08:07:04 12° ESE 08:08:32 10° SE visible
23 Oct ? 21:23:47 10° S 21:27:12 36° WSW 21:30:35 10° NW visible
24 Oct ? 21:02:48 10° S 21:06:29 87° W 21:10:07 10° NNW visible
26 Oct ? 21:56:57 10° SW 21:58:21 12° WSW 21:59:46 10° W visible
27 Oct ? 21:34:37 10° SSW 21:37:39 25° WSW 21:40:41 10° NW visible
28 Oct ? 21:13:20 10° S 21:16:56 56° WSW 21:20:29 10° NNW visible
